Regional Weather Roundup
Issued by NWS Midland/Odessa, TX

Skip options and go directly to product.
Home | Oldest Version | Next Version | Current Version | All | Text Only | Save Text | Print | Product List | Glossary On

Skip product version selection by date and time.   
619
ASUS44 KMAF 052001
RWRMAF
MIDLAND AREA WEATHER ROUNDUP
NATIONAL WEATHER SERVICE MIDLAND TX
300 PM CDT SUN JUL 05 2015

...IN SOUTHWEST TEXAS AND SOUTHEAST NEW MEXICO...

CITY           SKY/WX    TMP DP  RH WIND       PRES   REMARKS
ALPINE         PTSUNNY   87  55  33 W17G24    30.14F
ANDREWS        PTSUNNY   90  63  40 SE9       30.00F
ARTESIA        MOSUNNY   93  59  31 S8G15     29.98F
BIG SPRING     MOSUNNY   94  65  38 SE14G21   30.01F
CARLSBAD       MOSUNNY   95  60  31 MISG      29.95F
DRYDEN           N/A     93  67  42 SE7G16    29.95F
FORT STOCKTON  LGT RAIN  91  67  44 SE17      29.98F
GUAD PASS      MOSUNNY   89  57  33 SW14G21   30.14F
HOBBS          NOT AVBL
MARFA          CLOUDY   N/A N/A N/A CALM      30.14F
MIDLAND AIRPK  MOSUNNY   91  64  39 S7        29.99F
MIDLAND INTL   MOSUNNY   90  65  43 S9        29.98F
ODESSA         MOSUNNY   90  62  39 SW12G17   29.99F
PECOS          MOSUNNY   97  59  27 W7        29.93F
PRESIDIO       NOT AVBL
SEMINOLE       MOSUNNY   91  58  32 SE3       30.02F
SNYDER         MOSUNNY   87  69  53 S14       30.01S
WINK           MOSUNNY   95  59  30 VRB6      29.93F
$$
...OTHER STATIONS IN TEXAS...

CITY           SKY/WX    TMP DP  RH WIND       PRES   REMARKS
ABILENE        MOSUNNY   92  66  42 S18       29.98F
AMARILLO       SUNNY     88  60  38 S17G26    30.01F
AUSTIN         MOSUNNY   89  73  59 S17G28    30.00F
BROWNSVILLE    MOSUNNY   91  77  63 SE24      30.01F HX 104
CORPUS CHRISTI PTSUNNY   89  75  63 SE22G28   30.01F
DALLAS FTW     MOSUNNY   92  69  47 S21       29.98F
DEL RIO        MOSUNNY   90  68  48 SE16G29   29.94F
EL PASO        MOSUNNY   88  59  37 W10       30.02F
HOUSTON INT    PTSUNNY   93  73  52 S12       30.04F HX 102
LUBBOCK        PTSUNNY   90  64  42 S13       30.00F
SAN ANGELO     MOSUNNY   92  67  43 S17       29.98F
SAN ANTONIO    PTSUNNY   90  71  53 S23G29    30.01F
WACO           MOSUNNY   92  69  47 S17       30.00F
WICHITA FALLS  NOT AVBL
$$
...OTHER LOCATIONS IN NEW MEXICO...

CITY           SKY/WX    TMP DP  RH WIND       PRES   REMARKS
ALAMAGORDO     SUNNY     90  55  31 W3        30.03F
ALBUQUERQUE    MOSUNNY   88  53  30 CALM      30.09F
CANNON AFB     PTSUNNY   87  58  37 SW8       30.03F
CLOVIS         PTSUNNY   88  59  37 SE14G20     N/A
HOLLOMAN AFB   MOSUNNY   91  56  30 VRB2      30.00F
ROSWELL        MOSUNNY   95  59  30 S10       29.97F
RUIDOSO        MOSUNNY   72  55  56 E8        30.26R
SANTA FE       SUNNY     84  49  29 SW16      30.14F
TRUTH OR CONSE PTSUNNY   87  54  32 S7        30.07F
TUCUMCARI      SUNNY     96  54  24 SW15      29.97F
$$

USA.gov is the U.S. government's official web portal to all federal, state and local government web resources and services.